Location: Brookfield Center
(41.2406°N, 80.5579°W)
Time: 16:32:03
(UTC+00:00)

Lacrosse 5 rocket - Pass Details

Date: 18 January 2020
Orbit: 465 x 632 km, 57.0° (Epoch: 25 February)

Event Time Altitude Azimuth Distance (km) Brightness Sun altitude
Exits shadow 11:33:30 11° 329° (NNW) 1,917 3.6 -13.2°
Maximum altitude 11:34:50 13° 347° (NNW) 1,834 3.7 -13.0°
Drops below altitude 10° 11:36:48 10° 13° (NNE) 1,987 4.1 -12.6°
Sets 11:40:25 0° 43° (NE) 2,863 5.3 -12.0°
